Location: Newark
(42.9858°N, 0.6717°E)
Time: 22:39:56
(UTC+00:00)

Vanguard 3 - Visible Passes

Search period start: 20 November 2019 00:00
Search period end: 30 November 2019 00:00
Orbit: 508 x 3263 km, 33.4° (Epoch: 20 November)

Date Brightness Start Highest point End Pass type
(mag) Time Alt. Az. Time Alt. Az. Time Alt. Az.
20 Nov 10.2 17:49:28 10° W 18:06:17 47° SSW 18:17:05 10° SE visible
20 Nov 10.4 20:08:51 10° W 20:17:51 20° SW 20:23:07 13° SSW visible
21 Nov 10.4 16:31:56 10° W 16:50:45 57° SSW 17:03:41 10° ESE visible
21 Nov 10.4 18:49:54 10° W 19:03:55 33° SW 19:13:18 10° SSE visible
22 Nov 10.4 17:31:51 10° W 17:49:08 46° SSW 18:00:46 10° SE visible
22 Nov 10.6 19:51:42 10° W 20:00:49 19° SW 20:07:44 10° S visible
23 Nov 10.6 18:32:23 10° W 18:46:47 32° SW 18:56:48 10° SSE visible
24 Nov 10.7 17:14:19 10° W 17:31:51 44° SSW 17:44:17 10° SE visible
24 Nov 10.9 19:34:40 10° W 19:43:39 17° SW 19:50:45 10° SSW visible
25 Nov 10.8 18:14:57 10° W 18:29:29 30° SW 18:40:08 10° SSE visible
26 Nov 10.9 16:56:52 10° W 17:14:28 42° SSW 17:27:40 10° SSE visible
26 Nov 11.1 19:17:49 10° W 19:26:24 16° SW 19:33:27 10° SSW visible
27 Nov 11.0 17:57:38 10° W 18:12:06 28° SW 18:23:14 10° S visible
28 Nov 11.1 16:39:33 10° W 16:56:58 40° SSW 17:10:51 10° SSE visible
28 Nov 11.4 19:01:17 10° W 19:09:02 14° SW 19:15:44 10° SSW visible
29 Nov 11.2 17:40:28 10° W 17:54:37 26° SW 18:06:07 10° S visible
